Regional Weather Roundup
Issued by NWS Newport/Morehead, NC

Current Version | Previous Version | Text Only | Print | Product List | Glossary On
Versions: 1 2 3 4 5 6 7 8 9 10 11 12 13 14 15 16 17 18 19 20 21 22 23 24 25 26 27 28 29 30 31 32 33 34 35 36 37 38 39 40 41 42 43 44 45 46 47 48 49 50
000 ASUS42 KMHX 281410 RWRMHX WEATHER ROUNDUP FOR EASTERN NORTH CAROLINA NATIONAL WEATHER SERVICE NEWPORT/MOREHEAD CITY NC 1000 AM EDT THU AUG 28 2014 NOTE: "FAIR" INDICATES FEW OR NO CLOUDS BELOW 12,000 FEET WITH NO SIGNIFICANT WEATHER AND/OR OBSTRUCTIONS TO VISIBILITY NCZ015>017-031-032-045>047-102-103-281500- NORTH COAST CITY SKY/WX TMP DP RH WIND PRES REMARKS EDENTON SUNNY 78 66 67 W7 29.97S ELIZABETH CITY SUNNY 78 68 71 W9 29.96R HAZE KITTY HAWK MOSUNNY 79 71 76 W8 29.94S MANTEO SUNNY 78 67 69 W6 29.96S $$ NCZ045>047-081-094-103-104-281500- CENTRAL COAST CITY SKY/WX TMP DP RH WIND PRES REMARKS FRISCO SUNNY 79 70 74 W9 29.97S SWANQUARTER N/A 81 N/A N/A W12 29.94S $$ NCZ095-097-098-100-101-281500- SOUTHERN COAST CITY SKY/WX TMP DP RH WIND PRES REMARKS BEAUFORT SUNNY 82 64 54 W9 29.99F CEDAR ISLAND N/A 79 N/A N/A SW10G17 30.03S JACKSONVILLE SUNNY 80 63 55 VRB6 30.00S NEWPORT NOT AVBL PINEY ISLAND SUNNY 81 66 60 W14 29.98S WILMINGTON SUNNY 80 63 55 W7 30.02R $$ NCZ011>013-027>030-043-044-078>080-089-090>093-098-281500- COASTAL PLAIN CITY SKY/WX TMP DP RH WIND PRES REMARKS AHOSKIE MOSUNNY 76 67 73 CALM 29.98R CLINTON SUNNY 81 68 63 W3 30.01S ELIZABETHTOWN SUNNY 79 63 57 W5 30.02R GOLDSBORO MOSUNNY 79 69 72 W5 29.97F GREENVILLE MOSUNNY 81 64 57 W3 30.00S HAVELOCK SUNNY 81 62 52 W8 30.00S KENANSVILLE SUNNY 79 63 57 W6 30.01S KINSTON MOSUNNY 79 64 61 W3 29.99F NEW BERN SUNNY 82 62 50 W6 30.00F RICHLANDS SUNNY 81 63 54 W6 30.00F ROANOKE RAPIDS NOT AVBL ROCKY MOUNT PTSUNNY 78 67 68 N6 29.99R WASHINGTON SUNNY 79 65 62 W7 29.98F WHITEVILLE SUNNY 77 64 63 CALM 30.02S $$ AMZ130-135-150-152-154-156-158-170-250-252-270-ANZ085-086-088-633-658-670-281500- MARINE OBSERVATIONS STATION/POSITION TIME TEMP WIND PRES WAVE SWELL AIR SEA DIR/SP/G HT/PER HT/PER (UTC) (F) (DEG/KT/KT) (MB) (FT/S) (FT/S) CHESAPEAKE LIGHT 1300 78 320/ 16/ 18 1013.9 BUOY 44014 1400 76 74 280/ 12/ 14 1012.6 5/12 3/12 DUCK 1400 76 76 260/ 11/ 13 1013.4 2E DUCK 1400 N/A 3/13 2/13 OREGON INLET 1400 78 78 270/ 8/ 10 1014.3 BUOY 44095 1400 76 N/A 4/13 3/13 20E OREGON INLET NOT AVBL HATTERAS CG 1400 78 78 280/ 12/ 15 1015.4 DIAMOND BUOY 1400 78 280/ 17/ 19 1014.6 5/11 5/11 CAPE LOOKOUT 1300 78 280/ 12/ 14 1015.7 BEAUFORT LAB 1400 80 78 300/ 6/ 12 1015.0 30 SE NEW RIVER 1400 80 80 280/ 12/ 14 1016.5 4/11 3/11 5 SE WRIGHTSVILL 1400 75 81 270/ 10/ 12 N/A BUOY 41002 1315 80 81 280/ 6/ 10 1017.3 7/ 8 7/ 8 BUOY 41004 1400 80 82 320/ 8/ 10 1016.9 4/ 9 5/ 9 $$

USA.gov is the U.S. government's official web portal to all federal, state and local government web resources and services.